Location: Unspecified
(0.0000°N, 0.0000°E)
Time: 06:23:10
(UTC+00:00)

DMSP B5D2-5 - Pass Details

Date: 12 June 2023
Orbit: 711 x 814 km, 98.7° (Epoch: 28 September)

Event Time Altitude Azimuth Distance (km) Brightness Sun altitude
Exits shadow 20:11:47 17° 220° (SW) 1,793 7.0 -30.0°
Maximum altitude 20:14:05 23° 257° (WSW) 1,500 6.9 -30.5°
Drops below altitude 10° 20:17:54 10° 309° (NW) 2,219 8.2 -31.4°
Sets 20:20:36 0° 324° (NW) 3,155 9.1 -32.0°
